Belize City, Belize

2:23 PM CST on January 22, 2017 (GMT -0600)
Belize City

Weather History for 78583 - July, 2013

Change the Weather History Date:

Thursday, July 4, 2013

  Actual Average Record
Temperature  
Mean Temperature 78 °F -  
Max Temperature 83 °F 88 °F - ()
Min Temperature 72 °F 76 °F - ()
Cooling Degree Days 12    
Growing Degree Days 28 (Base 50)    
Moisture  
Dew Point 76 °F    
Average Humidity 90    
Maximum Humidity 100    
Minimum Humidity 77    
Precipitation  
Precipitation 3.46 in 0.31 in - ()
Sea Level Pressure  
Sea Level Pressure 29.93 in    
Wind  
Wind Speed 5 mph ()    
Max Wind Speed 12 mph    
Max Gust Speed -    
Visibility 6.9 miles    
Events Rain , Thunderstorm    
T = Trace of Precipitation, MM = Missing Value Source: Averaged Metar Reports

Daily Weather History Graph

Daily Weather History Graph

Search for Another Location

Airport or City:

Trip Planner

Search our weather history database for the weather conditions in past years. The results will help you decide how hot, cold, wet, or windy it might be!

Date:

Astronomy

Jul. 04, 2013 Rise Set
Actual Time 5:23 AM CST 6:32 PM CST
Civil Twilight 4:59 AM CST 6:56 PM CST
Nautical Twilight 4:30 AM CST 7:24 PM CST
Astronomical Twilight 4:01 AM CST 7:53 PM CST
Moon 2:29 AM CST (7/4) 3:44 PM CST (7/4)
Length of Visible Light 13h 56m
Length of Day
13h 08m
Waning Crescent, 11% of the Moon is Illuminated
Jul 4
Waning Crescent
Jul 8
New
Jul 15
First Quarter
Jul 22
Full
Jul 29
Last Quarter

Hourly Weather History & Observations

Time (CST) Temp. Heat Index Dew Point Humidity Pressure Visibility Wind Dir Wind Speed Gust Speed Precip Events Conditions
12:00 AM 83 °F - 77 °F 77% 29.91 in 12 mi East 11.5 mph - -   Mostly Cloudy
3:00 AM 73 °F - 72 °F 97% 29.92 in 2 mi SSE 11.5 mph - - Rain , Thunderstorm Heavy Thunderstorms and Rain
5:00 AM 73.4 °F - 71.6 °F 94% 29.92 in 6.2 mi Calm Calm - N/A Rain , Thunderstorm Light Thunderstorms and Rain
6:00 AM 74 °F - 72 °F 94% 29.94 in 7 mi Calm Calm - - Rain , Thunderstorm Thunderstorms and Rain
6:00 AM 73.4 °F - 73.4 °F 100% 29.92 in 6.2 mi Calm Calm - N/A Rain , Thunderstorm Light Thunderstorms and Rain
7:00 AM 75.2 °F - 73.4 °F 94% 29.95 in 6.2 mi Calm Calm - N/A Rain , Thunderstorm Light Thunderstorms and Rain
8:00 AM 77.0 °F - 75.2 °F 94% 29.95 in 6.2 mi Calm Calm - N/A Rain , Thunderstorm Light Thunderstorms and Rain
9:00 AM 77 °F - 76 °F 95% 29.98 in 9 mi NE 3.5 mph - - Thunderstorm Thunderstorm
9:00 AM 77.0 °F - 75.2 °F 94% 29.97 in 6.2 mi NE 3.5 mph - N/A Thunderstorm Thunderstorm
10:00 AM 77.0 °F - 75.2 °F 94% 29.96 in 6.2 mi ENE 5.8 mph - N/A   Mostly Cloudy
11:00 AM 80.6 °F 87.1 °F 77.0 °F 89% 29.96 in 6.2 mi NE 3.5 mph - N/A Rain Light Rain Showers
12:00 PM 80 °F - 77 °F 89% 29.96 in 9 mi East 6.9 mph - -  
12:00 PM 80.6 °F 87.1 °F 77.0 °F 89% 29.96 in 6.2 mi East 6.9 mph - N/A Rain Light Rain Showers
1:00 PM 80.6 °F 87.1 °F 77.0 °F 89% 29.93 in 6.2 mi NE 8.1 mph - N/A   Mostly Cloudy
2:00 PM 82.4 °F 92.4 °F 78.8 °F 89% 29.91 in 6.2 mi NE 8.1 mph - N/A   Mostly Cloudy
3:00 PM 82 °F - 78 °F 83% 29.90 in 1 mi East 8.1 mph - -   Partly Cloudy
3:00 PM 82.4 °F 90.9 °F 77.0 °F 84% 29.90 in 6.2 mi East 8.1 mph - N/A   Mostly Cloudy
4:00 PM 82.4 °F 92.4 °F 78.8 °F 89% 29.87 in 6.2 mi ENE 9.2 mph - N/A   Mostly Cloudy
5:00 PM 82.4 °F 90.9 °F 77.0 °F 84% 29.88 in 6.2 mi East 6.9 mph - N/A   Mostly Cloudy
6:00 PM 82 °F - 78 °F 85% 29.90 in 12 mi East 5.8 mph - -   Partly Cloudy
6:00 PM 82.4 °F 92.4 °F 78.8 °F 89% 29.89 in 6.2 mi East 5.8 mph - N/A   Mostly Cloudy
9:00 PM 80 °F - 77 °F 86% 29.95 in 12 mi East 3.5 mph - -   Scattered Clouds